Regional Weather Roundup
Issued by NWS

Home | Current Version | Previous Version | Text Only | Print | Product List | Glossary On
Versions: 1 2 3 4 5 6 7 8 9 10 11 12 13 14 15 16 17 18 19 20 21 22 23 24 25 26 27 28 29 30 31 32 33 34 35 36 37 38 39 40 41 42 43 44 45 46 47 48 49 50
000
ASUS44 KFWD 270915
RWRTX
NORTH TEXAS HOURLY WEATHER ROUNDUP
NATIONAL WEATHER SERVICE FORT WORTH TX
300 AM CST TUE JAN 27 2015

NOTE: "FAIR" INDICATES FEW OR NO CLOUDS BELOW 12,000 FEET WITH NO
SIGNIFICANT WEATHER AND/OR OBSTRUCTIONS TO VISIBILITY.

TXZ118-119-271000-
DALLAS/FORT WORTH METROPLEX

CITY           SKY/WX    TMP DP  RH WIND       PRES   REMARKS
DFW AIRPORT    PTCLDY    50  36  58 W3        30.08S
DALLAS LOVE    PTCLDY    47  38  71 CALM      30.09R
FTW MEACHAM    CLEAR     54  37  52 CALM      30.09R
DAL-EXECUTIVE  CLEAR     57  36  45 W8        30.07S
FTW-ALLIANCE   PTCLDY    50  35  56 W5        30.09R
FTW-SPINKS     CLEAR     55  36  47 W6        30.11S
ARLINGTON      CLEAR     46  35  65 CALM      30.09S
GRAND PRAIRIE  CLEAR     49  39  69 CALM      30.10S
ADDISON        CLEAR     51  38  60 CALM      30.10S
MESQUITE       CLEAR     43  37  79 CALM      30.08S
LANCASTER      CLEAR     52  35  53 W7        30.09R
$$

TXZ091>094-102>105-117-120-121-131>134-271000-
NORTH CENTRAL TEXAS

CITY           SKY/WX    TMP DP  RH WIND       PRES   REMARKS
SHRMAN/DENISON CLEAR     46  39  77 SW3       30.09R
GAINESVILLE    CLEAR     45  37  73 CALM      30.11R
BOWIE          CLEAR     49  38  64 NW6       30.10S
BRIDGEPORT     CLEAR     51  38  61 SW6       30.12S
DECATUR        CLEAR     52  35  53 W7        30.10S
DENTON         CLEAR     48  37  65 NW5       30.08S
MCKINNEY       CLEAR     43  36  76 CALM      30.07S
GREENVILLE     CLEAR     41  36  81 CALM      30.07S
ROCKWALL       CLEAR     54  37  54 W5        30.07R
TERRELL        CLEAR     43  37  79 CALM      30.08S
WAXAHACHIE     CLEAR     53  39  58 W8        30.10S
CLEBURNE       PTCLDY    54  37  54 NW9       30.11F
GRANBURY       PTCLDY    42  37  79 CALM      30.13S
$$

TXZ083>090-098>101-113>116-127>130-139>142-154-155-271000-
WESTERN NORTH TEXAS

CITY           SKY/WX    TMP DP  RH WIND       PRES   REMARKS
WICHITA FALLS  CLEAR     50  36  58 NW6       30.10S
WF-KICKAPOO    PTCLDY    42  31  65 W3        30.12S
VERNON         CLEAR     47  32  56 NW6       30.13S
ABILENE        PTCLDY    45  34  65 S7        30.17F
ABILENE-DYESS  PTCLDY    53  36  51 SW5       30.16S
BRECKENRIDGE   PTCLDY    51  35  53 SW7       30.14F
GRAHAM         PTCLDY    41  36  81 CALM      30.12S
MINERAL WELLS  PTCLDY    49  34  56 W3        30.11S
STEPHENVILLE   PTCLDY    53  36  52 NW3       30.16S
COMANCHE       MOCLDY    58  35  42 W10       30.15S
BROWNWOOD      MOCLDY    39  36  87 CALM      30.18S
COLEMAN        PTCLDY    53  38  55 W10       30.17S
BRADY          CLEAR     46  36  66 W7        30.17F
$$

TXZ143>147-156>162-174-175-271000-
CENTRAL TEXAS

CITY           SKY/WX    TMP DP  RH WIND       PRES   REMARKS
WACO           PTCLDY    43  37  79 S5        30.10F
WACO-MCGREGOR  PTCLDY    46  36  66 W6        30.12S
HILLSBORO      PTCLDY    46  37  71 CALM      30.10S
CORSICANA      CLEAR     48  38  68 W7        30.09S
MEXIA          PTCLDY    51  38  60 W8        30.09S
HEARNE         PTCLDY    41  38  91 CALM      30.13F
CAMERON        PTCLDY    52  40  62 SW8       30.12S
TEMPLE         PTCLDY    52  34  50 W7        30.12S
KILLEEN        PTCLDY    59  35  40 W15       30.12F
KILLEEN-SKYLRK PTCLDY    57  34  41 W7        30.12S
FORT HOOD      PTCLDY    56  36  46 MISG      30.12F
GATESVILLE     MOCLDY    48  37  66 CALM      30.15F
HAMILTON       MOCLDY    53  37  53 W12       30.15S
LAMPASAS       PTCLDY    55  37  49 W9        30.14S
$$

TXZ095>097-106>112-122>126-135>138-148>153-164>167-271000-
EAST TEXAS

CITY           SKY/WX    TMP DP  RH WIND       PRES   REMARKS
PARIS          CLEAR     50  37  62 NW7       30.07S
SULPHUR SPRNGS CLEAR     48  39  70 CALM      30.08S
MOUNT PLEASANT CLEAR     42  37  81 CALM      30.08R
GILMER         CLEAR     45  38  77 CALM      30.06S
MINEOLA        CLEAR     43  37  81 CALM      30.08S
TYLER          CLEAR     50  38  63 W3        30.07S
LONGVIEW       CLEAR     44  37  76 CALM      30.06R
MARSHALL       CLEAR     41  38  88 CALM      30.08S
ATHENS         CLEAR     37  36  93 CALM      30.07F
PALESTINE      PTCLDY    43  38  85 CALM      30.10S
JACKSONVILLE   CLEAR     54  38  55 SW7       30.09S
HENDERSON      CLEAR     39  37  91 CALM      30.08S
NACOGDOCHES    CLEAR     43  36  75 CALM      30.08F
LUFKIN         CLEAR     44  37  76 CALM      30.08F
$$

SUPPLEMENTAL OBSERVATIONS (CENTRAL)

CITY           SKY/WX    TMP DP  RH WIND       PRES   REMARKS
LAKE TEXOMA      N/A     52  41  66 NW6         N/A
CADDO GRASSLND   N/A     43  39  87 S2          N/A
PAT MAYSE LAKE   N/A     46  41  81 SW2         N/A
GREENVILLE       N/A     45  37  76 W3          N/A
CEDAR HILL       N/A     52  34  50 S2          N/A
ATHENS           N/A     48  37  66 CALM        N/A
LAKE LIMESTONE   N/A     52  37  58 W6          N/A
MCGREGOR         N/A     48  37  66 SW6         N/A
$$

SUPPLEMENTAL OBSERVATIONS (WEST)

CITY           SKY/WX    TMP DP  RH WIND       PRES   REMARKS
MILLERS CREEK    N/A     41  36  81 SW8         N/A  WCI  36
LBJ GRASSLAND    N/A     50  36  57 CALM        N/A
COMANCHE         N/A     57  32  38 W12         N/A
HAMBY            N/A     43  34  70 SE3         N/A
IVIE RESERVOIR   N/A     45  36  70 W7          N/A
COLORADO BEND    N/A     52  32  46 W5          N/A
$$

SUPPLEMENTAL OBSERVATIONS (EAST)

CITY           SKY/WX    TMP DP  RH WIND       PRES   REMARKS
CLARKSVILLE      N/A     45  37  76 W2          N/A
TEXARKANA        N/A     34  30  86 CALM        N/A
LINDEN           N/A     45  36  70 W2          N/A
CADDO LAKE       N/A     36  34  93 CALM        N/A
GILMER           N/A     43  37  81 CALM        N/A
HENDERSON        N/A     39  36  87 CALM        N/A
LUFKIN           N/A     39  36  87 MISG        N/A
N SABINE NF      N/A     45  37  76 MISG        N/A
S SABINE NF      N/A     45  37  76 SE3         N/A
$$

SUPPLEMENTAL OBSERVATIONS ARE A COLLECTION OF AUTOMATED INSTRUMENTS
THAT ARE MAINTAINED BY A VARIETY OF FEDERAL AND STATE AGENCIES.
CERTAIN ELEMENTS...SUCH AS HUMIDITY VALUES AND SUSTAINED WIND
SPEEDS...MAY BE APPROXIMATED.




USA.gov is the U.S. government's official web portal to all federal, state and local government web resources and services.